Location: Nakusp
(50.2330°N, 117.8000°W)
Time: 23:26:00
(UTC-08:00)

Daily predictions for brighter satellites

Satellite Brightness Start Highest point End
(mag) Time Altitude Azimuth Time Altitude Azimuth Time Altitude Azimuth
USA 215 3.6 16:48:02 10° ENE 16:54:26 58° NNW 17:00:49 10° W
Cosmos 1461 3.1 16:50:45 10° SW 16:55:03 88° SE 16:59:38 10° NE
Cosmos 1953 Rocket 4.1 16:56:01 10° SSW 17:00:24 63° WNW 17:04:45 10° N
CSL-04 Debris 4.2 16:56:52 10° SSE 17:02:18 77° ENE 17:07:48 10° NNW
FENGYUN 3A 4.3 16:58:34 10° SE 17:03:16 33° ENE 17:08:01 10° N
SL-16 R/B 2.5 16:58:11 10° SW 17:03:52 75° WNW 17:09:36 10° NNE
Geosat 4.3 17:00:23 10° NE 17:05:19 51° ESE 17:10:12 10° S
PKM 3.8 17:03:32 10° WNW 17:06:32 41° NNE 17:09:16 10° E
ATLAS 5 CENTAUR R/B 3.2 17:02:26 10° W 17:06:47 32° NNW 17:11:36 10° NE
ERBS 3.7 17:04:25 10° WNW 17:07:21 26° N 17:10:15 10° NE
BREEZE-M DEB 4.1 17:06:25 10° W 17:09:08 84° S 17:12:53 10° E
Cosmos 2154 Rocket 4.0 17:02:56 10° N 17:09:15 73° E 17:15:34 10° SSE
Cosmos 1726 2.6 17:10:13 10° N 17:13:41 37° ENE 17:17:06 10° SE
Cosmos-2242 4.4 17:10:19 10° NNW 17:14:21 43° W 17:18:22 10° SSW
Cosmos 968 Rocket 3.8 17:09:37 10° NNW 17:14:35 43° ENE 17:19:28 10° SE
SL-24 R/B - RUBIN 2 4.5 17:10:30 10° NNW 17:14:50 32° NNE 17:18:50 10° E
Cosmos 1603 3.9 17:11:41 10° S 17:17:17 57° ESE 17:22:55 10° NE
Cosmos 1943 3.9 17:14:07 10° S 17:19:07 34° ESE 17:24:07 10° NE
Cosmos 2181 Rocket 4.5 17:16:05 10° SSE 17:22:03 42° E 17:28:01 10° NNE
ATLAS 2AS CENTAUR R/B 3.1 17:15:01 10° NW 17:23:07 84° SW 17:30:37 10° SE
Cosmos 1867 3.6 17:19:58 10° SW 17:25:25 89° SE 17:30:56 10° NE
Cosmos 1809 Rocket 4.4 17:19:50 10° N 17:25:59 80° E 17:32:04 10° SSE
METEOR-M 4.1 17:20:54 10° SSE 17:26:13 71° ENE 17:31:34 10° N
CZ-4 R/B 1.5 17:22:23 10° SSE 17:26:37 89° E 17:30:54 10° NNW
YAOGAN 1 2.5 17:22:47 10° SSE 17:27:04 67° ENE 17:31:23 10° N
ALOS 2.5 17:22:59 10° SE 17:27:26 46° ENE 17:31:54 10° N
Cosmos 2237 Rocket 3.8 17:22:47 10° WSW 17:27:40 29° NW 17:32:35 10° NNE
SOZ 4.2 17:28:03 10° W 17:30:43 56° N 17:31:44 23° ENE
Meteor 2-16 Rocket 4.4 17:29:02 10° N 17:35:06 61° ENE 17:41:09 10° SSE
Cosmos 1674 2.5 17:31:51 10° S 17:35:36 74° E 17:39:20 10° NNE
Meteor 2-21 Rocket 4.4 17:29:36 10° N 17:35:46 73° ENE 17:41:49 10° SSE
NOSS 2-1 (E) 3.9 17:32:58 10° SSW 17:36:28 39° ESE 17:39:10 18° ENE
Landsat 4 4.5 17:34:40 13° NE 17:37:37 30° E 17:40:57 10° SSE
USA 161 3.8 17:36:49 10° NNW 17:38:40 19° WNW 17:40:22 10° WSW
Envisat 4.4 17:40:44 17° ENE 17:41:18 17° NE 17:44:34 10° NNE
Cosmos 2218 Rocket 4.1 17:35:44 10° N 17:41:46 51° ENE 17:47:44 10° SSE
Cosmos 2263 4.2 17:36:24 10° NNW 17:42:14 89° ENE 17:47:59 10° SSE
SL-8 Rocket 4.0 17:36:35 10° N 17:42:43 61° ENE 17:48:50 10° SSE
Meteor 2-10 3.8 17:39:25 10° N 17:44:28 73° ENE 17:49:31 10° SSE
NOSS 3-4 (A) 3.9 17:38:47 10° NW 17:45:31 57° NE 17:52:46 10° ESE
NOSS 3-4 (C) 3.9 17:38:53 10° NW 17:45:37 57° NE 17:52:51 10° ESE
SL-14 R/B 3.9 17:42:16 10° SSE 17:45:51 33° E 17:48:29 16° NE
TELKOM 3 3.2 17:47:40 10° WSW 17:49:44 49° SSE 17:50:12 39° ESE
Cosmos 2221 2.5 17:48:17 10° N 17:52:41 86° WSW 17:57:03 10° S
Cosmos 1300 2.6 17:50:05 10° N 17:53:54 62° ENE 17:57:42 10° SSE
Cosmos 2369 Rocket 2.9 17:49:04 10° NW 17:54:37 58° WSW 18:00:10 10° S
NOSS 7 (D) 4.2 17:53:06 10° SW 17:56:24 90° NNW 17:57:58 28° NE
NOSS 3-3 (A) 4.1 17:50:38 10° SSW 17:56:39 61° SE 18:01:34 19° NE
NOSS 3-3 (C) 4.1 17:50:45 10° SSW 17:56:46 61° SE 18:01:40 19° NE
Cosmos 2228 Rocket 4.2 17:55:05 10° NNE 17:58:19 24° ENE 17:58:19 24° ENE
Lacrosse 4 Rocket 3.3 17:57:22 10° W 18:00:40 23° NW 18:03:58 10° NNE
COSMO-SKYMED 1 2.5 17:56:32 10° NNE 18:00:52 67° ESE 18:05:11 10° S
Cosmos 1315 Rocket 3.5 17:58:07 10° SSE 18:01:36 31° E 18:01:54 31° E
Tiangong 1 2.9 18:00:22 10° SSW 18:01:52 14° S 18:02:22 14° SSE
Cosmos 1626 4.1 17:59:12 10° SE 18:00:04 15° SE 18:00:04 15° SE
Cosmos 1408 Rocket 4.2 17:59:50 10° SSE 18:03:35 30° E 18:03:50 30° E
SPOT 3 Rocket 3.4 17:58:33 10° SSE 18:03:41 79° ENE 18:08:52 10° NNW
Cosmos 1346 Rocket 3.4 18:02:19 10° N 18:05:42 33° ENE 18:05:42 33° ENE
Cosmos 2219 Rocket 4.5 18:03:45 10° WNW 18:06:36 14° NNW 18:09:28 10° N
CZ-2C R/B 4.0 18:05:24 10° NNE 18:10:11 74° WNW 18:14:51 10° SSW
Meteor 1-27 4.5 18:06:02 10° N 18:11:30 45° ENE 18:16:59 10° SE
Cosmos 1656 Rocket 3.5 18:10:38 10° NNW 18:16:05 70° ENE 18:21:35 10° SE
ERS-2 2.0 18:12:58 10° SSE 18:16:40 87° E 18:20:23 10° NNW
Cosmos 1943 Rocket 2.8 18:11:35 10° NW 18:17:06 57° WSW 18:22:32 10° S
GEOS 3 Rocket 3.7 18:12:10 10° SE 18:17:30 86° SW 18:22:57 10° NW
Cosmos 2366 rocket 3.9 18:16:46 10° N 18:23:05 87° ENE 18:29:18 10° S
Cosmos 1777 Rocket 3.9 18:19:02 10° NNW 18:24:16 68° ENE 18:29:30 10° SSE
SS 1 4.5 18:21:18 10° NW 18:24:13 84° N 18:24:13 84° N
Cosmos 1980 Rocket 4.2 18:23:55 10° N 18:26:14 13° NNE 18:26:14 13° NNE
Cosmos 1821 Rocket 4.3 18:24:23 10° N 18:30:07 39° ENE 18:31:26 35° E
Cosmos 1076 Rocket 3.7 18:28:11 10° SSW 18:32:33 75° W 18:36:40 12° N
Cosmos 1328 Rocket 3.5 18:28:18 10° N 18:32:40 59° ENE 18:33:49 43° SE
Meteor 2-2 Rocket 4.2 18:27:43 10° NNW 18:33:34 88° WSW 18:39:16 10° S
Cosmos 1400 Rocket 3.4 18:30:24 10° SSW 18:34:24 59° WNW 18:37:46 15° N
Cosmos 1328 3.6 18:30:29 10° S 18:34:29 73° E 18:35:06 59° NE
H-2A R/B 2.7 18:31:10 10° SSE 18:34:57 85° WSW 18:38:50 10° NNW
Cosmos 2098 Rocket 3.4 18:31:56 10° N 18:36:29 65° E 18:42:16 10° SSE
Meteor 2-8 Rocket 4.3 18:30:27 10° S 18:36:35 81° E 18:42:47 10° NNE
FengYun 1-2 T 4.2 18:30:57 10° SSE 18:36:36 87° ENE 18:42:15 10° NNW
USA 215 3.6 18:34:14 32° ENE 18:36:56 50° N 18:43:12 10° WNW
Okean 3 Rocket 4.1 18:36:50 10° SSW 18:41:19 60° WNW 18:45:50 10° N
Nadezhda 3 Rocket 4.1 18:37:58 10° SSE 18:43:59 48° E 18:47:03 28° NNE
ERBS 4.0 18:41:29 10° NW 18:43:28 26° NNW 18:43:28 26° NNW
Cosmos 1766 Rocket 3.4 18:42:03 10° S 18:46:22 89° ESE 18:47:28 50° N
SL-16 R/B 4.3 18:44:51 10° W 18:49:00 20° NW 18:53:11 10° N
ATLAS 5 CENTAUR R/B 3.7 18:49:12 10° NW 18:53:05 21° N 18:54:02 20° NNE
BREEZE-M DEB (TANK) 3.6 18:51:28 10° SW 18:53:40 27° SSW 18:53:40 27° SSW
EO 1 Del DPAF 4.0 18:54:03 34° NNW 18:55:21 50° WNW 18:59:03 10° SW
NOSS 2-1 (C) 4.2 18:54:19 10° WSW 18:58:01 45° NW 18:58:28 43° NNW
NOSS 2-1 (D) 4.2 18:55:00 10° WSW 18:58:40 44° NW 18:59:06 42° NNW
SL-24 R/B - RUBIN 2 4.2 18:54:22 10° NW 18:58:52 53° WSW 19:00:12 38° S
Cosmos 1943 4.0 18:57:34 10° SW 19:03:01 49° NW 19:06:09 24° N
Resurs 01 Rocket 4.1 19:19:08 12° N 19:19:08 12° N 19:19:29 10° N
Cosmos 1697 Rocket 4.4 19:10:41 10° NNW 19:13:03 20° N 19:13:03 20° N
Cosmos 1934 Rocket 4.3 19:09:11 10° N 19:14:06 50° NNE 19:14:06 50° NNE
Envisat 3.4 19:20:55 53° NNW 19:20:55 53° NNW 19:24:48 10° NNW
Thor Agena Rocket 4.2 19:23:23 46° SSW 19:23:23 46° SSW 19:26:58 10° SSW
Cosmos 2239 Rocket 4.3 19:21:34 10° N 19:27:46 88° WSW 19:28:14 78° S
Cosmos 1980 Rocket 4.5 20:06:55 10° NNW 20:08:01 15° NNW 20:08:01 15° NNW
USA 215 4.0 20:21:35 48° NW 20:21:35 48° NW 20:26:07 10° WNW
